Location: Goettingen
(51.5300°N, 9.9433°E)
Time: 18:53:09
(UTC+02:00)

ISS - Pass Details

Date: 13 May 2026
Orbit: 414 x 424 km, 51.6° (Epoch: 13 May)

Event Time Altitude Azimuth Distance (km) Brightness Sun altitude
Rises 00:07:22 0° 276° (W) 2,354 0.4 -18.5°
Reaches altitude 10° 00:09:27 10° 276° (W) 1,491 -0.7 -18.6°
Maximum altitude 00:12:48 88° 186° (S) 421 -3.9 -18.8°
Enters shadow 00:13:26 56° 100° (E) 500 -3.6 -18.8°
